[[{"header":{"parameterUnit":"m.s-1","parameterCategory":1,"la1":30.2991,"la2":30.254,"lo1":-89.0895,"lo2":-89.0444,"dy":0.0017,"dx":0.0017,"nx":28,"ny":28,"refTime":"2024-08-11T21:00:00:Z","depth":0,"parameterNumber":2,"parameterNumberName":"U-component_of_WINDS"},"data":[0,0,0,0,0,0,0,0,0,0,0,0,0,0,0,0,0,0,0,0,0,0,0,0,0,0,0,0,0,0,0,0,0,0,0,0,0,0,0,0,0,0,0,0,0,0,0,0,0,0,0,0,0,0,0,0,0,0,-0.5718,-0.5718,0,-0.5791,-0.5791,-0.5792,-0.588,-0.5881,-0.5883,-0.5884,-0.5955,-0.5955,-0.5956,0,0,0,0,0,0,0,0,0,0,0,0,0,-0.5651,-0.5652,-0.5717,-0.5718,-0.5719,-0.579,-0.5791,-0.5792,-0.588,-0.5882,-0.5883,-0.5885,-0.5954,-0.5955,-0.5956,0,0,0,0,0,0,0,0,0,0,0,0,0,-0.5697,-0.5652,-0.5717,-0.5772,-0.5777,-0.579,-0.5791,-0.5793,-0.588,-0.5882,-0.5884,-0.5886,-0.5954,-0.5955,-0.5956,-0.592,0,0,-0.5959,-0.5959,0,0,0,0,0,0,0,0,-0.5695,-0.57,-0.5763,-0.5768,-0.5774,-0.5828,-0.5794,-0.5835,-0.5879,-0.584,-0.5884,-0.5887,-0.5911,-0.5915,-0.5924,-0.5923,-0.5926,-0.5959,-0.5959,-0.5959,-0.596,0,0,0,0,0,0,0,-0.5691,-0.5697,-0.5746,-0.5764,-0.5771,-0.5791,-0.58,-0.5802,-0.5863,-0.5844,-0.5851,-0.5858,-0.5914,-0.5923,-0.5926,-0.5927,-0.5959,-0.5959,-0.596,-0.596,-0.5901,-0.5899,0,0,0,0,0,0,-0.568,-0.5694,-0.5744,-0.5748,-0.5739,-0.5791,-0.5801,-0.5809,-0.5863,-0.5874,-0.5856,-0.5862,-0.5921,-0.5925,-0.5929,-0.5891,-0.5959,-0.596,-0.5961,-0.5903,-0.5901,-0.5898,0,0,0,0,0,0,-0.5679,-0.5684,-0.5741,-0.5723,-0.5732,-0.579,-0.5798,-0.5809,-0.5818,-0.5873,-0.5884,-0.5855,-0.5922,-0.5928,-0.5922,-0.5894,-0.5961,-0.5962,-0.5906,-0.5902,-0.5899,-0.5813,0,0,0,0,0,0,-0.5676,-0.5683,-0.567,-0.5722,-0.5733,-0.5733,-0.5797,-0.5809,-0.582,-0.5828,-0.5874,-0.5883,-0.5924,-0.592,-0.5923,-0.5897,-0.5962,-0.5908,-0.5904,-0.59,-0.5818,-0.5807,-0.5797,0,0,0,0,0,-0.5674,-0.5642,-0.5669,-0.5675,-0.5718,-0.5731,-0.5737,-0.5786,-0.5818,-0.5805,-0.584,-0.5882,-0.5897,-0.5919,-0.5923,-0.5896,-0.591,-0.5905,-0.5901,-0.5823,-0.5809,-0.5798,0,0,0,0,0,0,-0.5583,-0.565,-0.568,-0.5665,-0.5692,-0.5746,-0.5731,-0.577,-0.5788,-0.5794,-0.5854,-0.5863,-0.585,-0.5873,-0.5895,-0.5865,-0.591,-0.5906,-0.585,-0.5837,-0.5827,-0.582,-0.5963,0,0,0,0,0,-0.5562,-0.5568,-0.5625,-0.5606,-0.5618,-0.5672,-0.568,-0.5716,-0.5746,-0.5757,-0.5792,-0.5818,-0.5829,-0.5835,-0.5848,-0.5823,-0.5834,-0.5807,-0.5797,-0.5788,-0.5782,-0.5771,-0.576,-0.5883,-0.5883,-0.5883,0,0,-0.5517,-0.5554,-0.5554,-0.5589,-0.5614,-0.5618,-0.5681,-0.5683,-0.5686,-0.5757,-0.5753,-0.578,-0.5813,-0.5798,-0.5793,-0.5816,-0.5752,-0.5782,-0.5774,-0.5774,-0.5765,-0.5753,-0.5743,-0.588,-0.588,-0.5881,0,0,-0.5436,-0.5466,-0.5453,-0.5478,-0.5516,-0.5553,-0.5549,-0.5598,-0.5619,-0.5617,-0.5671,-0.5675,-0.5693,-0.5715,-0.5728,-0.5658,-0.5697,-0.5661,-0.5605,-0.5593,-0.5584,-0.5575,-0.555,-0.554,-0.5656,-0.5656,-0.5656,0,-0.5375,-0.5385,-0.5441,-0.544,-0.5453,-0.552,-0.5507,-0.5528,-0.5567,-0.5575,-0.5602,-0.5626,-0.5653,-0.5644,-0.5627,-0.5636,-0.5633,-0.5655,-0.5581,-0.5573,-0.5566,-0.5542,-0.5532,-0.5651,-0.5652,-0.5652,-0.5653,0,-0.5307,-0.5313,-0.5298,-0.5336,-0.5348,-0.5341,-0.5395,-0.5401,-0.5436,-0.547,-0.5467,-0.5503,-0.5524,-0.5525,-0.5559,-0.5521,-0.5534,-0.557,-0.5616,-0.5549,-0.5527,-0.5518,-0.5644,-0.5646,-0.5648,-0.5649,0,0,-0.5169,-0.5241,-0.5234,-0.5253,-0.5301,-0.5306,-0.5302,-0.5325,-0.5328,-0.5354,-0.5351,-0.5366,-0.54,-0.5415,-0.5452,-0.5442,-0.5384,-0.548,-0.5481,-0.5459,-0.5343,-0.5314,-0.5302,-0.5411,-0.541,-0.5408,-0.5339,0,-0.5096,-0.5094,-0.5145,-0.5128,-0.5134,-0.5199,-0.5196,-0.5224,-0.5256,-0.5265,-0.53,-0.5309,-0.5354,-0.5364,-0.5357,-0.5392,-0.5361,-0.5398,-0.5407,-0.5407,-0.5395,-0.5291,-0.526,-0.5193,-0.5331,-0.533,-0.5329,0,-0.501,-0.5033,-0.5017,-0.5067,-0.5071,-0.5067,-0.5093,-0.5101,-0.5135,-0.5159,-0.5177,-0.522,-0.5219,-0.5265,-0.5264,-0.5288,-0.5295,-0.5313,-0.5312,-0.5313,-0.5362,-0.5287,-0.5173,-0.5162,-0.5317,-0.5318,-0.5318,0,-0.4909,-0.4936,-0.493,-0.4944,-0.5003,-0.4998,-0.5022,-0.5059,-0.507,-0.5092,-0.5099,-0.5121,-0.5132,-0.5147,-0.5195,-0.5224,-0.5188,-0.5238,-0.5206,-0.5205,-0.5193,-0.5193,-0.5077,-0.5201,-0.5201,-0.5201,-0.5202,0,-0.4821,-0.4808,-0.4886,-0.4882,-0.4869,-0.4929,-0.4915,-0.4946,-0.4978,-0.498,-0.5038,-0.5039,-0.5103,-0.5111,-0.5149,-0.5141,-0.5146,-0.5165,-0.5174,-0.5158,-0.5156,-0.5162,-0.5167,-0.5199,-0.5199,-0.52,-0.52,0,-0.4705,-0.4757,-0.4754,-0.4811,-0.4825,-0.4813,-0.4861,-0.486,-0.4897,-0.4899,-0.4903,-0.496,-0.4972,-0.5023,-0.5046,-0.5072,-0.5052,-0.5072,-0.504,-0.5046,-0.5011,-0.5013,-0.4893,-0.488,-0.5014,-0.5013,-0.5012,0,-0.4644,-0.4636,-0.4693,-0.47,-0.4722,-0.4731,-0.4743,-0.4803,-0.4812,-0.4852,-0.4845,-0.4863,-0.488,-0.4897,-0.4939,-0.4958,-0.4978,-0.4935,-0.4981,-0.4965,-0.4976,-0.4975,-0.4974,-0.4924,-0.4922,-0.4921,-0.492,0,-0.453,-0.4557,-0.4573,-0.4598,-0.4611,-0.4633,-0.4659,-0.466,-0.4726,-0.4735,-0.4749,-0.4762,-0.4788,-0.4805,-0.4831,-0.4855,-0.4897,-0.4906,-0.4899,-0.4881,-0.4862,-0.4871,-0.5011,-0.4907,-0.4909,-0.4909,-0.491,-0.4911,-0.4439,-0.4435,-0.4475,-0.4491,-0.4517,-0.454,-0.4541,-0.4579,-0.4593,-0.4619,-0.4654,-0.4663,-0.4699,-0.4739,-0.476,-0.4768,-0.4792,-0.4783,-0.478,-0.4776,-0.4768,-0.4863,-0.4773,-0.4774,-0.4774,-0.4775,-0.4775,0,-0.4327,-0.4357,-0.4371,-0.4406,-0.4418,-0.4461,-0.4491,-0.4498,-0.4507,-0.4537,-0.4554,-0.457,-0.4587,-0.4632,-0.4653,-0.4651,-0.4671,-0.4654,-0.4654,-0.4658,-0.4746,-0.4749,-0.4638,-0.4638,-0.4638,-0.4638,-0.4638,-0.4638,-0.427,-0.4266,-0.4297,-0.4306,-0.4336,-0.4347,-0.4361,-0.4382,-0.4407,-0.4424,-0.4439,-0.4469,-0.4505,-0.4529,-0.4546,-0.456,-0.4564,-0.454,-0.4559,-0.4639,-0.4652,-0.4665,-0.4667,-0.4541,-0.4541,-0.447,-0.447,-0.4469]},{"header":{"parameterUnit":"m.s-1","parameterCategory":1,"la1":30.2991,"la2":30.254,"lo1":-89.0895,"lo2":-89.0444,"dy":0.0017,"dx":0.0017,"nx":28,"ny":28,"refTime":"2024-08-11T21:00:00:Z","depth":0,"parameterNumber":3,"parameterNumberName":"V-component_of_WINDS"},"data":[0,0,0,0,0,0,0,0,0,0,0,0,0,0,0,0,0,0,0,0,0,0,0,0,0,0,0,0,0,0,0,0,0,0,0,0,0,0,0,0,0,0,0,0,0,0,0,0,0,0,0,0,0,0,0,0,0,0,-1.5127,-1.5126,0,-1.5071,-1.507,-1.507,-1.4996,-1.4995,-1.4993,-1.4992,-1.4936,-1.4936,-1.4935,0,0,0,0,0,0,0,0,0,0,0,0,0,-1.5171,-1.517,-1.5127,-1.5126,-1.5126,-1.5071,-1.507,-1.507,-1.4996,-1.4995,-1.4993,-1.4992,-1.4936,-1.4936,-1.4935,0,0,0,0,0,0,0,0,0,0,0,0,0,-1.5137,-1.517,-1.5127,-1.5082,-1.5078,-1.5071,-1.507,-1.5069,-1.4996,-1.4995,-1.4993,-1.4991,-1.4936,-1.4936,-1.4935,-1.4969,0,0,-1.4934,-1.4933,0,0,0,0,0,0,0,0,-1.5139,-1.5136,-1.509,-1.5085,-1.508,-1.5038,-1.5065,-1.5036,-1.4997,-1.5027,-1.4992,-1.499,-1.4972,-1.4968,-1.4962,-1.4966,-1.4964,-1.4934,-1.4933,-1.4933,-1.4933,0,0,0,0,0,0,0,-1.5142,-1.5138,-1.5105,-1.5089,-1.5083,-1.5065,-1.5058,-1.5059,-1.501,-1.5025,-1.5019,-1.5013,-1.4969,-1.4962,-1.496,-1.4963,-1.4934,-1.4933,-1.4933,-1.4933,-1.4992,-1.4994,0,0,0,0,0,0,-1.5151,-1.514,-1.5107,-1.5103,-1.5106,-1.5066,-1.5058,-1.5054,-1.501,-1.5002,-1.5015,-1.501,-1.4964,-1.4961,-1.4958,-1.4995,-1.4933,-1.4932,-1.4932,-1.4991,-1.4993,-1.4995,0,0,0,0,0,0,-1.5152,-1.5148,-1.5109,-1.512,-1.5114,-1.5067,-1.5063,-1.5054,-1.5047,-1.5003,-1.4994,-1.5017,-1.4963,-1.4958,-1.4967,-1.4992,-1.4932,-1.4932,-1.4988,-1.4991,-1.4994,-1.5069,0,0,0,0,0,0,-1.5153,-1.5149,-1.5161,-1.5121,-1.5113,-1.5119,-1.5064,-1.5054,-1.5046,-1.5039,-1.5003,-1.4995,-1.4961,-1.4968,-1.4966,-1.499,-1.4931,-1.4986,-1.499,-1.4993,-1.5064,-1.5074,-1.5083,0,0,0,0,0,-1.5155,-1.5184,-1.5162,-1.5158,-1.5127,-1.512,-1.5116,-1.5076,-1.5049,-1.5061,-1.5032,-1.4996,-1.4989,-1.4969,-1.4967,-1.4991,-1.4984,-1.4989,-1.4993,-1.506,-1.5072,-1.5083,0,0,0,0,0,0,-1.5229,-1.5178,-1.5153,-1.517,-1.515,-1.5108,-1.5122,-1.509,-1.5077,-1.5072,-1.5022,-1.5015,-1.5029,-1.501,-1.4989,-1.5021,-1.4981,-1.4985,-1.5033,-1.5045,-1.5054,-1.5059,-1.4931,0,0,0,0,0,-1.5247,-1.5246,-1.5201,-1.5221,-1.5212,-1.5169,-1.5164,-1.5135,-1.5112,-1.5104,-1.5076,-1.5056,-1.5049,-1.5045,-1.5036,-1.5061,-1.5052,-1.5076,-1.5085,-1.5093,-1.5098,-1.511,-1.5121,-1.5009,-1.5009,-1.5009,0,0,-1.5285,-1.5257,-1.5259,-1.5235,-1.5216,-1.5216,-1.5162,-1.5164,-1.5164,-1.5104,-1.511,-1.5089,-1.5063,-1.508,-1.5086,-1.5065,-1.5126,-1.5099,-1.5105,-1.5105,-1.5116,-1.5127,-1.5136,-1.5012,-1.5012,-1.5011,0,0,-1.5354,-1.5332,-1.5347,-1.5329,-1.5301,-1.5272,-1.5276,-1.5238,-1.5222,-1.5227,-1.5183,-1.5181,-1.517,-1.5154,-1.5145,-1.5208,-1.5175,-1.5206,-1.5255,-1.5268,-1.5277,-1.5285,-1.5309,-1.5318,-1.5211,-1.5211,-1.5211,0,-1.5405,-1.5403,-1.5358,-1.5363,-1.5354,-1.53,-1.5314,-1.5299,-1.527,-1.5265,-1.5242,-1.5227,-1.5206,-1.5219,-1.5234,-1.5228,-1.5231,-1.5211,-1.5279,-1.5287,-1.5293,-1.5316,-1.5325,-1.5215,-1.5214,-1.5214,-1.5214,0,-1.5467,-1.5467,-1.5482,-1.5455,-1.5447,-1.5457,-1.5415,-1.5413,-1.5384,-1.5358,-1.5365,-1.5337,-1.5322,-1.5322,-1.5294,-1.5332,-1.532,-1.5288,-1.5248,-1.5309,-1.5329,-1.5337,-1.5221,-1.5219,-1.5218,-1.5217,0,0,-1.5583,-1.5531,-1.5537,-1.5525,-1.549,-1.5489,-1.5496,-1.5482,-1.5482,-1.5463,-1.5469,-1.5461,-1.5432,-1.5421,-1.539,-1.5402,-1.5456,-1.5369,-1.5368,-1.5388,-1.5497,-1.5522,-1.5533,-1.5433,-1.5434,-1.5435,-1.55,0,-1.5646,-1.5657,-1.5617,-1.5638,-1.5637,-1.5585,-1.5592,-1.5571,-1.5547,-1.5543,-1.5516,-1.5512,-1.5473,-1.5466,-1.5475,-1.5447,-1.5477,-1.5442,-1.5439,-1.5439,-1.5449,-1.5543,-1.5569,-1.5631,-1.5507,-1.5508,-1.5509,0,-1.5723,-1.5709,-1.573,-1.5694,-1.5692,-1.5699,-1.5683,-1.5679,-1.5656,-1.5637,-1.5625,-1.559,-1.5595,-1.5555,-1.5563,-1.554,-1.5536,-1.5522,-1.5523,-1.5523,-1.548,-1.5547,-1.565,-1.566,-1.5521,-1.552,-1.5519,0,-1.5807,-1.5793,-1.5804,-1.5794,-1.5753,-1.5759,-1.5742,-1.5716,-1.5711,-1.5696,-1.5692,-1.5679,-1.5672,-1.5662,-1.5625,-1.5598,-1.5637,-1.5593,-1.5623,-1.5624,-1.5635,-1.5635,-1.5741,-1.563,-1.563,-1.5629,-1.5629,0,-1.5883,-1.5899,-1.5841,-1.5848,-1.5864,-1.5818,-1.5835,-1.5813,-1.579,-1.5792,-1.5746,-1.5749,-1.5698,-1.5696,-1.5666,-1.5678,-1.5674,-1.566,-1.5653,-1.5666,-1.5668,-1.5664,-1.5659,-1.5632,-1.5631,-1.5631,-1.563,0,-1.5981,-1.5943,-1.5952,-1.5912,-1.5902,-1.5916,-1.5881,-1.5887,-1.5859,-1.5863,-1.5861,-1.5818,-1.5813,-1.5774,-1.5759,-1.5739,-1.5763,-1.5746,-1.5772,-1.5767,-1.5799,-1.5798,-1.5908,-1.5921,-1.58,-1.5801,-1.5802,0,-1.6033,-1.6044,-1.6005,-1.6003,-1.5989,-1.5986,-1.598,-1.5935,-1.593,-1.5904,-1.5913,-1.5904,-1.5894,-1.5888,-1.5856,-1.5846,-1.5829,-1.5868,-1.5827,-1.584,-1.5832,-1.5833,-1.5834,-1.5878,-1.5879,-1.5881,-1.5882,0,-1.6131,-1.6111,-1.6104,-1.6091,-1.6085,-1.6072,-1.6056,-1.6057,-1.6007,-1.6005,-1.5999,-1.5992,-1.5977,-1.597,-1.5953,-1.5936,-1.5902,-1.5895,-1.5901,-1.5916,-1.5931,-1.5925,-1.5798,-1.5893,-1.5892,-1.5891,-1.589,-1.589,-1.6208,-1.6216,-1.619,-1.6184,-1.6167,-1.6154,-1.6157,-1.613,-1.6124,-1.611,-1.6083,-1.6082,-1.6057,-1.6032,-1.6018,-1.6016,-1.5996,-1.6005,-1.6007,-1.6011,-1.6019,-1.593,-1.6013,-1.6012,-1.6012,-1.6012,-1.6011,0,-1.6305,-1.6286,-1.628,-1.626,-1.6256,-1.6222,-1.6203,-1.6202,-1.6201,-1.6181,-1.6173,-1.6167,-1.616,-1.6127,-1.6116,-1.6121,-1.6105,-1.612,-1.612,-1.6117,-1.6037,-1.6033,-1.6133,-1.6133,-1.6133,-1.6133,-1.6133,-1.6133,-1.6355,-1.6366,-1.6344,-1.6347,-1.6328,-1.6326,-1.6318,-1.6306,-1.629,-1.6286,-1.6279,-1.6258,-1.6233,-1.622,-1.6212,-1.6202,-1.6201,-1.6222,-1.6208,-1.6134,-1.6122,-1.6111,-1.6108,-1.6222,-1.6222,-1.6288,-1.6288,-1.6289]}]]